Iridium Next SV105
operational LEOCIRCULARPOLAR
Über Iridium Next SV105
Group: 3 satellites
Beschreibung wird geladen...
Live-Position
3D-Globus wird geladen...
Nächste Überflüge
Höhenverlauf
Altitude vs Time
uPlot chart will show altitude changes over time
Zweizeiliger Elementsatz
1 41921U 17003E 26061.13877913 .00000296 00000-0 98309-4 0 9992
2 41921 86.3928 101.6542 0002261 93.1063 267.0392 14.34397238479796
Epoch: 2. März 2026 •
Age: 29 hours
Aktueller Status
Höhe 783.7 km
Geschwindigkeit 7.47 km/s
Subsatellitenpunkt 49.25°N,
40.27°E
Startdatum 14. Jan. 2017
Alter 9.1 years
Typ communications
Technische Details
Klassifizierung Payload
Masse 860.00 kg
Trockenmasse 700.00 kg
Gesamtmasse 860.00 kg
Länge 3.10 m
Durchmesser 1.50 m
Spannweite 9.40 m
Form Half Hex Prism+2 pan
Hersteller OATKGA
Bus-Typ EliteBus
Phasenstatus In Orbit
Besitzer/Staat IRIDS/US
Große Konstellationen
Loading constellations...